FW4317 Weather Reports


Display with metric or nautical units.
time (UTC)temp
F
wind
direction
speed
MPH
gust
MPH
rain 1hr
in
rain 24hr
in
rain mn
in
humidity
%
barometer
mb
20260504045535 67 203 1.0 6.0 0.00 0.00 0.00 53 1011.2
20260504044515 67 203 1.0 4.0 0.00 0.00 0.00 53 1011.2
20260504043515 67 203 1.0 5.0 0.00 0.00 0.00 53 1011.2
20260504042515 68 203 0.0 7.0 0.00 0.00 0.00 53 1011.3
20260504041535 68 203 1.0 6.0 0.00 0.00 0.00 52 1011.3
20260504040515 68 204 1.0 5.0 0.00 0.00 0.00 51 1011.3
20260504035515 68 204 1.0 4.0 0.00 0.00 0.00 51 1011.4
20260504034515 69 204 1.0 5.0 0.00 0.00 0.00 51 1011.4
20260504033515 69 204 1.0 5.0 0.00 0.00 0.00 50 1011.3
20260504032515 70 204 0.0 6.0 0.00 0.00 0.00 49 1011.3
20260504031515 70 204 0.0 7.0 0.00 0.00 0.00 48 1011.3
20260504030515 71 204 0.0 3.0 0.00 0.00 0.00 47 1011.2
20260504025515 71 204 0.0 3.0 0.00 0.00 0.00 45 1011.2
20260504024535 72 204 0.0 4.0 0.00 0.00 0.00 45 1011.1
20260504023515 72 204 1.0 6.0 0.00 0.00 0.00 44 1010.9
20260504022515 72 204 1.0 3.0 0.00 0.00 0.00 44 1010.9
20260504021515 73 204 1.0 7.0 0.00 0.00 0.00 43 1010.8
20260504020535 73 204 0.0 2.0 0.00 0.00 0.00 43 1010.7
20260504015515 73 204 0.0 4.0 0.00 0.00 0.00 43 1010.7
20260504014516 74 204 0.0 2.0 0.00 0.00 0.00 42 1010.6
20260504013515 74 204 1.0 5.0 0.00 0.00 0.00 41 1010.5
20260504012515 75 204 0.0 2.0 0.00 0.00 0.00 40 1010.5
20260504011535 75 204 0.0 2.0 0.00 0.00 0.00 39 1010.5
20260504010515 76 204 0.0 2.0 0.00 0.00 0.00 39 1010.6
20260504005515 76 204 0.0 2.0 0.00 0.00 0.00 39 1010.5
20260504004515 77 204 0.0 2.0 0.00 0.00 0.00 37 1010.5
20260504003515 77 204 0.0 2.0 0.00 0.00 0.00 35 1010.5
20260504002515 78 204 0.0 2.0 0.00 0.00 0.00 34 1010.5
20260504001555 79 204 0.0 3.0 0.00 0.00 0.00 32 1010.5
20260504000515 80 204 0.0 4.0 0.00 0.00 0.00 31 1010.5
20260503235535 81 204 1.0 4.0 0.00 0.00 0.00 29 1010.7
20260503234515 82 204 1.0 5.0 0.00 0.00 0.00 29 1010.7
20260503233515 83 205 1.0 8.0 0.00 0.00 0.00 28 1010.7
20260503232515 83 205 1.0 6.0 0.00 0.00 0.00 30 1010.7
20260503231515 83 203 1.0 7.0 0.00 0.00 0.00 31 1010.7
20260503230515 83 201 1.0 9.0 0.00 0.00 0.00 30 1010.7
20260503225535 84 202 1.0 4.0 0.00 0.00 0.00 30 1010.8
20260503224515 84 203 1.0 7.0 0.00 0.00 0.00 30 1010.7
20260503223515 84 202 1.0 6.0 0.00 0.00 0.00 31 1010.8
20260503222535 84 202 1.0 6.0 0.00 0.00 0.00 30 1010.9
20260503221535 84 201 1.0 8.0 0.00 0.00 0.00 29 1011.0
20260503220535 84 200 1.0 5.0 0.00 0.00 0.00 29 1011.0
20260503215535 84 200 1.0 8.0 0.00 0.00 0.00 30 1011.1
20260503214515 84 203 2.0 9.0 0.00 0.00 0.00 30 1011.2
20260503213515 84 205 1.0 7.0 0.00 0.00 0.00 29 1011.3
20260503212515 84 199 2.0 8.0 0.00 0.00 0.00 29 1011.4
20260503211515 84 197 1.0 7.0 0.00 0.00 0.00 31 1011.6
20260503210535 84 195 1.0 7.0 0.00 0.00 0.00 31 1011.9
20260503205515 84 195 1.0 12.0 0.00 0.00 0.00 30 1012.1
20260503204515 84 200 0.0 5.0 0.00 0.00 0.00 32 1012.2
20260503203515 84 199 1.0 8.0 0.00 0.00 0.00 33 1012.5
20260503202535 83 193 2.0 11.0 0.00 0.00 0.00 33 1012.6
20260503201515 83 168 1.0 6.0 0.00 0.00 0.00 36 1012.9
20260503200515 83 168 1.0 8.0 0.00 0.00 0.00 37 1013.0
20260503195515 83 154 2.0 9.0 0.00 0.00 0.00 39 1013.3
20260503194515 83 152 2.0 13.0 0.00 0.00 0.00 39 1013.5
20260503193555 82 148 1.0 8.0 0.00 0.00 0.00 39 1013.5
20260503192515 82 148 1.0 7.0 0.00 0.00 0.00 41 1013.7
20260503191515 81 148 1.0 11.0 0.00 0.00 0.00 41 1013.9
20260503190515 81 147 1.0 6.0 0.00 0.00 0.00 43 1014.0
20260503185515 81 147 1.0 6.0 0.00 0.00 0.00 43 1014.1
20260503184515 80 146 1.0 7.0 0.00 0.00 0.00 43 1014.3
20260503183515 80 146 2.0 10.0 0.00 0.00 0.00 44 1014.5
20260503182515 79 146 1.0 6.0 0.00 0.00 0.00 45 1014.6
20260503181515 79 146 1.0 11.0 0.00 0.00 0.00 46 1014.8
20260503180517 79 146 3.0 6.0 0.00 0.00 0.00 47 1015.1
20260503175555 78 146 1.0 9.0 0.00 0.00 0.00 47 1015.3
20260503174537 77 145 3.0 9.0 0.00 0.00 0.00 48 1015.4
20260503173517 77 144 2.0 10.0 0.00 0.00 0.00 49 1015.6
20260503172515 76 144 1.0 7.0 0.00 0.00 0.00 50 1015.7
20260503171517 76 144 2.0 7.0 0.00 0.00 0.00 51 1015.8
20260503170517 75 144 1.0 12.0 0.00 0.00 0.00 51 1015.9
20260503150517 67 114 1.0 7.0 0.00 0.00 0.00 57 1016.7
20260503130517 55 45 1.0 5.0 0.00 0.00 0.00 68 1017.2
20260503110517 53 29 2.0 6.0 0.00 0.00 0.00 62 1017.1
20260503081516 53 16 0.0 2.0 0.00 0.00 0.00 63 1018.7
20260503080517 53 16 0.0 2.0 0.00 0.00 0.00 63 1018.8
20260503072517 53 16 0.0 1.0 0.00 0.00 0.00 63 1019.1
20260503071516 53 0.0 0.0 0.00 0.00 0.00 63 1019.1
20260503070517 53 16 0.0 1.0 0.00 0.00 0.00 66 1019.1
20260503054537 54 16 0.0 2.0 0.00 0.00 0.00 61 1019.1
20260503053517 53 0.0 2.0 0.00 0.00 0.00 61 1019.1
20260503052517 53 0.0 0.0 0.00 0.00 0.00 62 1019.1
20260503051517 52 0.0 2.0 0.00 0.00 0.00 63 1019.0
20260503050517 52 0.0 0.0 0.00 0.00 0.00 66 1019.0